Syracuse, NY

11:51 AM EDT on May 25, 2018 (GMT -0400)
Syracuse Hancock International

Weather History for KSYR - January, 2014

Change the Weather History Date:

Thursday, January 23, 2014

  Actual Average Record
Temperature  
Mean Temperature 6 °F 23 °F  
Max Temperature 14 °F 31 °F 68 °F (1906)
Min Temperature -3 °F 15 °F -18 °F (1976)
Degree Days  
Heating Degree Days 59 42  
Month to date heating degree days 1000 953  
Since 1 July heating degree days 3475 3406  
Cooling Degree Days 0 0  
Month to date cooling degree days 0 0  
Year to date cooling degree days 0 0  
Moisture  
Dew Point -1 °F    
Average Humidity 75    
Maximum Humidity 88    
Minimum Humidity 61    
Precipitation  
Precipitation 0.06 in 0.07 in 1.00 in (1998)
Month to date precipitation 1.99 1.92  
Year to date precipitation 1.99 1.92  
Snow  
Snow 1.50 in 1.10 in 8.70 in (1966)
Month to date snowfall 19.2 25.2  
Since 1 July snowfall 62.5 67.8  
Snow Depth 4.00 in    
Sea Level Pressure  
Sea Level Pressure 30.16 in    
Wind  
Wind Speed 4 mph (NW)    
Max Wind Speed 16 mph    
Max Gust Speed 20 mph    
Visibility 5 miles    
Events Snow    
T = Trace of Precipitation, MM = Missing Value Source: NWS Daily Summary

Daily Weather History Graph

Daily Weather History Graph

Search for Another Location

Airport or City:

Astronomy

Jan. 23, 2014 Rise Set
Actual Time 7:28 AM EST 5:04 PM EST
Civil Twilight 6:57 AM EST 5:35 PM EST
Nautical Twilight 6:22 AM EST 6:10 PM EST
Astronomical Twilight 5:48 AM EST 6:44 PM EST
Moon No Moon Rise 10:49 AM EST (1/23)
Length of Visible Light 10h 38m
Length of Day
9h 36m
Waning Gibbous, 55% of the Moon is Illuminated
Jan 23
Waning Gibbous
Jan 24
Last Quarter
Jan 30
New
Feb 6
First Quarter
Feb 14
Full

Hourly Weather History & Observations

Time (EST) Temp. Windchill Dew Point Humidity Pressure Visibility Wind Dir Wind Speed Gust Speed Precip Events Conditions
12:54 AM -0.0 °F - -5.1 °F 79% 30.07 in 9.0 mi Calm Calm - 0.00 in Snow Light Snow
1:45 AM -0.4 °F - -5.8 °F 78% 30.05 in 9.0 mi Calm Calm - 0.00 in Snow Light Snow
1:54 AM -0.0 °F -7.9 °F -5.1 °F 79% 30.07 in 9.0 mi ENE 3.5 mph - 0.00 in Snow Light Snow
2:14 AM -0.4 °F -8.3 °F -5.8 °F 78% 30.05 in 9.0 mi East 3.5 mph - 0.00 in Snow Light Snow
2:54 AM -0.9 °F - -5.1 °F 83% 30.08 in 9.0 mi Calm Calm - 0.00 in Snow Light Snow
3:54 AM -0.9 °F -12.7 °F -6.0 °F 79% 30.08 in 9.0 mi East 5.8 mph - 0.00 in Snow Light Snow
4:54 AM -2.0 °F -10.1 °F -7.1 °F 79% 30.09 in 9.0 mi NE 3.5 mph - 0.00 in Snow Light Snow
5:54 AM -2.9 °F -15.0 °F -8.0 °F 79% 30.10 in 9.0 mi East 5.8 mph - 0.00 in Snow Light Snow
6:54 AM -2.0 °F -10.1 °F -8.0 °F 76% 30.12 in 3.0 mi NE 3.5 mph - 0.00 in Snow Light Snow
7:00 AM -2.2 °F - -7.6 °F 78% 30.09 in 2.5 mi Calm Calm - 0.00 in Snow Light Snow
7:09 AM -2.2 °F -10.4 °F -7.6 °F 78% 30.09 in 1.8 mi NE 3.5 mph - 0.00 in Snow Light Snow
7:22 AM -2.2 °F -10.4 °F -7.6 °F 78% 30.10 in 1.8 mi NE 3.5 mph - 0.00 in Snow Light Snow
7:45 AM -2.2 °F - -7.6 °F 78% 30.10 in 2.0 mi Calm Calm - 0.00 in Snow Light Snow
7:54 AM -2.0 °F - -7.1 °F 79% 30.13 in 1.8 mi Calm Calm - 0.00 in Snow Light Snow
8:23 AM -2.2 °F - -7.6 °F 78% 30.10 in 2.0 mi Calm Calm - 0.00 in Snow Light Snow
8:28 AM -2.2 °F - -7.6 °F 78% 30.10 in 3.0 mi Calm Calm - 0.00 in Snow Light Snow
8:54 AM -2.0 °F - -7.1 °F 79% 30.14 in 2.5 mi Calm Calm - 0.00 in   Haze
8:59 AM -2.2 °F -10.4 °F -7.6 °F 78% 30.11 in 3.0 mi East 3.5 mph - 0.00 in Snow Light Snow
9:43 AM 1.4 °F - -4.0 °F 78% 30.12 in 2.5 mi Calm Calm - 0.00 in Snow Light Snow
9:54 AM 1.9 °F - -4.0 °F 76% 30.14 in 3.0 mi Calm Calm - 0.00 in Snow Light Snow
10:54 AM 9.0 °F - -0.0 °F 67% 30.16 in 10.0 mi Calm Calm - 0.00 in   Scattered Clouds
11:54 AM 10.9 °F -0.8 °F 3.0 °F 70% 30.14 in 10.0 mi West 8.1 mph - N/A   Scattered Clouds
12:01 PM 10.4 °F -1.5 °F 3.2 °F 73% 30.12 in 10.0 mi West 8.1 mph - N/A   Mostly Cloudy
12:20 PM 12.2 °F -1.8 °F 3.2 °F 67% 30.11 in 10.0 mi WSW 11.5 mph - N/A   Overcast
12:54 PM 12.9 °F 1.6 °F 3.9 °F 67% 30.14 in 4.0 mi WNW 8.1 mph - 0.00 in Snow Light Snow
1:03 PM 12.2 °F -0.2 °F 3.2 °F 67% 30.12 in 2.0 mi WSW 9.2 mph - 0.00 in Snow Light Snow
1:06 PM 12.2 °F 0.7 °F 3.2 °F 67% 30.12 in 5.0 mi WSW 8.1 mph - 0.00 in Snow Light Snow
1:16 PM 12.2 °F 0.7 °F 5.0 °F 73% 30.12 in 2.0 mi NW 8.1 mph - 0.00 in Snow Light Snow
1:18 PM 12.2 °F -0.2 °F 5.0 °F 73% 30.12 in 1.5 mi NW 9.2 mph - 0.00 in Snow Light Snow
1:22 PM 12.2 °F 0.7 °F 5.0 °F 73% 30.12 in 0.8 mi NW 8.1 mph - 0.00 in Snow Light Snow
1:31 PM 12.2 °F 1.7 °F 5.0 °F 73% 30.12 in 1.5 mi WNW 6.9 mph - 0.00 in Snow Light Snow
1:33 PM 12.2 °F 1.7 °F 5.0 °F 73% 30.12 in 2.5 mi WNW 6.9 mph - 0.00 in Snow Light Snow
1:40 PM 12.2 °F 1.7 °F 3.2 °F 67% 30.12 in 4.0 mi NNW 6.9 mph - 0.00 in Snow Light Snow
1:54 PM 14.0 °F 2.0 °F 5.0 °F 67% 30.14 in 9.0 mi NW 9.2 mph - 0.00 in   Overcast
2:20 PM 12.2 °F 2.9 °F 3.2 °F 67% 30.13 in 10.0 mi NW 5.8 mph - 0.00 in   Mostly Cloudy
2:54 PM 12.0 °F -1.3 °F 1.9 °F 64% 30.17 in 10.0 mi WNW 10.4 mph - 0.00 in   Mostly Cloudy
3:54 PM 10.9 °F -1.8 °F 1.0 °F 64% 30.20 in 10.0 mi WNW 9.2 mph - N/A   Mostly Cloudy
4:34 PM 10.4 °F -2.4 °F 1.4 °F 67% 30.19 in 10.0 mi WNW 9.2 mph - N/A   Overcast
4:41 PM 10.4 °F -2.4 °F -0.4 °F 62% 30.20 in 10.0 mi West 9.2 mph - N/A   Mostly Cloudy
4:54 PM 9.0 °F -3.2 °F -0.9 °F 64% 30.22 in 10.0 mi WNW 8.1 mph - N/A   Mostly Cloudy
5:42 PM 8.6 °F -3.7 °F 1.4 °F 73% 30.21 in 2.0 mi West 8.1 mph - 0.00 in Snow Light Snow
5:54 PM 8.1 °F -4.3 °F 3.9 °F 83% 30.24 in 2.0 mi WSW 8.1 mph - 0.00 in Snow Light Snow
6:24 PM 8.6 °F -3.7 °F 3.2 °F 79% 30.22 in 1.8 mi West 8.1 mph - 0.00 in Snow Light Snow
6:54 PM 9.0 °F -0.9 °F 5.0 °F 84% 30.25 in 1.2 mi West 5.8 mph - 0.00 in Snow Light Snow
7:06 PM 8.6 °F 0.1 °F 5.0 °F 85% 30.24 in 1.0 mi WNW 4.6 mph - 0.00 in Snow Light Snow
7:17 PM 6.8 °F -4.8 °F 3.2 °F 85% 30.24 in 0.8 mi North 6.9 mph - 0.01 in Snow Light Snow
7:39 PM 6.8 °F -2.0 °F 3.2 °F 85% 30.25 in 1.0 mi North 4.6 mph - 0.02 in Snow Light Snow
7:54 PM 7.0 °F -1.7 °F 3.0 °F 84% 30.28 in 1.8 mi North 4.6 mph - 0.02 in Snow Light Snow
8:54 PM 7.0 °F 0.1 °F 3.0 °F 84% 30.29 in 1.2 mi North 3.5 mph - 0.01 in Snow Light Snow
9:40 PM 6.8 °F - 3.2 °F 85% 30.27 in 1.5 mi Calm Calm - 0.01 in Snow Light Snow
9:51 PM 6.8 °F - 1.4 °F 79% 30.28 in 2.0 mi Calm Calm - 0.01 in Snow Light Snow
9:54 PM 6.1 °F - 1.9 °F 83% 30.30 in 2.0 mi Calm Calm - 0.01 in Snow Light Snow
10:28 PM 6.8 °F - 1.4 °F 79% 30.28 in 1.8 mi Calm Calm - 0.00 in Snow Light Snow
10:54 PM 6.1 °F - 1.9 °F 83% 30.30 in 1.8 mi Calm Calm - 0.01 in Snow Light Snow
11:35 PM 5.0 °F - 1.4 °F 85% 30.29 in 1.5 mi Calm Calm - 0.00 in Snow Light Snow
11:46 PM 5.0 °F -2.1 °F 1.4 °F 85% 30.28 in 2.0 mi North 3.5 mph - 0.01 in Snow Light Snow
11:54 PM 5.0 °F -2.1 °F 1.0 °F 84% 30.30 in 2.0 mi NNE 3.5 mph - 0.01 in Snow Light Snow